DW4212 La Cabrera ES current weather conditions

sailwx.info

Wind from 049 at 3 knots gusting 10

Air temperature 1.7° C
Dewpoint -4.0° C

Last reported at 2017-Jan-19 22:39 UTC.
Time now 2017-Jan-19 23:40 UTC

Location: N 40°53' W 003°35'.
View on Google Maps.

See reports from other nearby stations

  
Tides and Currents Weather Stations Pressure Air Temp Water Temp Dewpoint Dewpoint Depression Visibility Wind Speed Wind Dir Waves Ship Positions
date/time (UTC)wind fromknots sea level pressurealtimeterstation pressurevisibilityair tempwater tempwave heightnotes
2017-Jan-19 22:39 049 3 gusting 10 1.7
2017-Jan-19 22:29 053 4 gusting 11 2.2
2017-Jan-19 22:19 082 4 gusting 14 2.2
2017-Jan-19 22:09 058 6 gusting 13 2.2
2017-Jan-19 21:59 055 5 gusting 13 2.2
2017-Jan-19 21:49 070 4 gusting 13 2.2
2017-Jan-19 21:39 065 8 gusting 13 2.2
2017-Jan-19 21:29 076 5 gusting 14 2.2
2017-Jan-19 21:19 015 3 gusting 13 2.2
2017-Jan-19 21:09 069 4 gusting 13 2.2
2017-Jan-19 20:59 062 9 gusting 13 2.2
2017-Jan-19 20:49 059 7 gusting 11 2.2
2017-Jan-19 20:39 082 6 gusting 15 2.2
2017-Jan-19 20:29 064 5 gusting 11 2.2
2017-Jan-19 20:19 088 7 gusting 13 2.2
2017-Jan-19 20:09 094 2 gusting 11 2.2
2017-Jan-19 19:59 072 6 gusting 11 2.2
2017-Jan-19 19:49 099 7 gusting 15 2.2
2017-Jan-19 19:39 050 5 gusting 13 2.2
2017-Jan-19 19:29 071 7 gusting 13 2.2
2017-Jan-19 19:19 061 5 gusting 9 2.2
2017-Jan-19 19:09 080 2 gusting 8 2.2
2017-Jan-19 18:59 022 3 gusting 7 2.2
2017-Jan-19 18:49 009 3 gusting 6 2.2
2017-Jan-19 18:39 019 2 gusting 7 2.2
2017-Jan-19 18:29 086 3 gusting 9 2.2
2017-Jan-19 18:19 054 3 gusting 11 2.2
2017-Jan-19 18:10 059 6 gusting 13 2.2
2017-Jan-19 17:59 071 4 gusting 8 2.2
2017-Jan-19 17:49 078 3 gusting 9 2.2
2017-Jan-19 17:39 079 2 gusting 9 2.2
2017-Jan-19 17:29 075 5 gusting 10 2.8
2017-Jan-19 17:19 069 1 gusting 6 2.8
2017-Jan-19 17:09 051 2 gusting 6 2.8
2017-Jan-19 16:59 064 0 gusting 11 2.8
2017-Jan-19 16:49 078 4 gusting 10 2.8
2017-Jan-19 16:39 078 3 gusting 9 2.8
2017-Jan-19 16:29 072 1 gusting 8 2.8
2017-Jan-19 16:19 086 2 gusting 11 3.3
2017-Jan-19 16:09 065 0 gusting 6 3.3
2017-Jan-19 15:59 071 3 gusting 7 3.3
2017-Jan-19 15:49 084 5 gusting 9 3.3
2017-Jan-19 15:39 072 6 gusting 11 3.3
2017-Jan-19 15:29 068 7 gusting 12 3.3
2017-Jan-19 15:19 077 6 gusting 9 3.9
2017-Jan-19 15:09 098 6 gusting 13 3.9
2017-Jan-19 14:59 073 5 gusting 10 4.4
2017-Jan-19 14:49 069 6 gusting 15 3.9
2017-Jan-19 14:39 088 7 gusting 13 4.4
2017-Jan-19 14:29 092 6 gusting 12 4.4
2017-Jan-19 14:19 075 6 gusting 13 4.4
2017-Jan-19 14:09 092 6 gusting 12 5.0
2017-Jan-19 13:59 090 5 gusting 12 4.4
2017-Jan-19 13:49 090 5 gusting 12 5.0
2017-Jan-19 13:39 074 7 gusting 13 5.0
2017-Jan-19 13:29 096 4 gusting 11 5.0
2017-Jan-19 13:19 107 4 gusting 13 5.0
2017-Jan-19 13:09 078 2 gusting 12 5.0
2017-Jan-19 12:59 135 4 gusting 12 5.0
2017-Jan-19 12:49 092 5 gusting 11 5.0
2017-Jan-19 12:39 071 4 gusting 11 5.0
2017-Jan-19 12:29 091 3 gusting 10 4.4
2017-Jan-19 12:19 086 5 gusting 11 4.4
2017-Jan-19 12:09 085 2 gusting 6 4.4
2017-Jan-19 11:59 066 2 gusting 9 3.9
2017-Jan-19 11:49 063 0 gusting 7 3.3
2017-Jan-19 11:39 067 1 gusting 7 2.8
2017-Jan-19 11:29 059 1 gusting 5 2.8
2017-Jan-19 11:19 355 0 gusting 6 2.8
2017-Jan-19 11:09 355 2 gusting 7 2.2
2017-Jan-19 10:59 336 2 gusting 5 2.2
2017-Jan-19 10:49 011 3 gusting 5 1.7
2017-Jan-19 10:39 073 0.6
2017-Jan-19 10:29 036 2 gusting 5 -0.6
2017-Jan-19 10:19 084 -1.1
2017-Jan-19 10:09 090 -1.1
2017-Jan-19 09:59 084 1 gusting 4 -1.7
2017-Jan-19 09:49 083 0 gusting 5 -2.2
2017-Jan-19 09:39 090 1 gusting 4 -2.8
2017-Jan-19 09:29 093 -2.8
2017-Jan-19 09:19 351 3 gusting 6 -1.1
2017-Jan-19 09:09 024 0 gusting 5 -0.6
2017-Jan-19 08:59 026 1 gusting 5 -1.7
2017-Jan-19 08:49 051 2 gusting 4 -2.8
2017-Jan-19 08:39 071 1 gusting 3 -3.9
2017-Jan-19 08:29 086 -3.9
2017-Jan-19 08:19 095 0 gusting 5 -4.4
2017-Jan-19 08:09 360 -3.9
2017-Jan-19 07:59 355 -3.3
2017-Jan-19 07:49 355 -3.3
2017-Jan-19 07:39 355 0 gusting 6 -2.2
2017-Jan-19 07:29 005 1 gusting 6 -2.2
2017-Jan-19 07:19 009 2 gusting 5 -2.2
2017-Jan-19 07:09 355 1 gusting 6 -1.7
2017-Jan-19 06:59 333 2 gusting 6 -2.8
2017-Jan-19 06:49 346 4 gusting 7 -2.2
2017-Jan-19 06:39 360 3 gusting 6 -3.3
2017-Jan-19 06:29 005 -2.8
2017-Jan-19 06:19 343 2 gusting 6 -2.2
2017-Jan-19 06:09 005 1 gusting 5 -2.2
2017-Jan-19 05:59 350 2 gusting 4 -2.2
2017-Jan-19 05:49 355 2 gusting 4 -1.7
2017-Jan-19 05:39 355 1 gusting 6 -1.7
2017-Jan-19 05:29 005 3 gusting 6 -1.7
2017-Jan-19 05:19 331 5 gusting 7 -2.2
2017-Jan-19 05:09 346 3 gusting 5 -2.2
2017-Jan-19 04:59 005 3 gusting 6 -2.8
2017-Jan-19 04:49 005 2 gusting 5 -3.9
2017-Jan-19 04:39 012 3 gusting 5 -4.4
2017-Jan-19 04:29 046 0 gusting 4 -5.0
2017-Jan-19 04:19 063 -4.4
2017-Jan-19 04:09 019 1 gusting 6 -2.8
2017-Jan-19 03:59 360 3 gusting 6 -2.8
2017-Jan-19 03:49 073 1 gusting 6 -2.8
2017-Jan-19 03:39 348 3 gusting 6 -3.3
2017-Jan-19 03:29 349 3 gusting 5 -3.9
2017-Jan-19 03:19 360 1 gusting 3 -3.3
2017-Jan-19 03:09 360 1 gusting 3 -3.9
2017-Jan-19 02:59 360 2 gusting 4 -3.3
2017-Jan-19 02:49 360 3 gusting 6 -3.3
2017-Jan-19 02:39 046 0 gusting 6 -3.9
2017-Jan-19 02:29 005 3 gusting 6 -3.9
2017-Jan-19 02:19 041 2 gusting 6 -3.9
2017-Jan-19 02:09 355 4 gusting 7 -3.9
2017-Jan-19 01:59 335 5 gusting 6 -4.4
2017-Jan-19 01:49 017 3 gusting 6 -4.4
2017-Jan-19 01:40 011 1 gusting 5 -4.4
2017-Jan-19 01:29 339 2 gusting 6 -5.0
2017-Jan-19 01:19 360 3 gusting 6 -5.0
2017-Jan-19 01:09 348 4 gusting 6 -5.6
2017-Jan-19 00:59 032 2 gusting 3 -5.6
2017-Jan-19 00:49 082 -5.6
2017-Jan-19 00:39 082 0 gusting 2 -5.6
2017-Jan-19 00:29 083 -5.6
2017-Jan-19 00:19 083 -5.6
2017-Jan-19 00:09 083 -5.6
2017-Jan-18 23:59 083 -5.6
2017-Jan-18 23:49 083 -5.0
2017-Jan-18 23:39 083 -5.0
2017-Jan-18 23:29 083 -5.0
2017-Jan-18 23:19 083 -5.0
2017-Jan-18 23:09 083 -5.0
2017-Jan-18 22:59 083 -4.4
2017-Jan-18 22:39 349 2 gusting 7 -2.2
2017-Jan-18 22:29 005 3 gusting 6 -2.2
2017-Jan-18 22:19 344 4 gusting 7 -2.2
2017-Jan-18 22:09 342 4 gusting 7 -2.2
2017-Jan-18 21:59 355 5 gusting 6 -2.8
2017-Jan-18 21:49 333 4 gusting 6 -3.3
2017-Jan-18 21:39 331 4 gusting 6 -3.3
2017-Jan-18 21:29 022 2 gusting 5 -3.3
2017-Jan-18 21:19 027 0 gusting 5 -3.3
2017-Jan-18 21:09 079 0 gusting 2 -3.3
2017-Jan-18 20:59 079 -3.3
2017-Jan-18 20:49 080 -2.8
2017-Jan-18 20:39 089 -2.8
2017-Jan-18 20:29 090 -2.2
2017-Jan-18 20:19 090 -2.2
2017-Jan-18 20:09 090 -2.2
2017-Jan-18 19:59 005 0 gusting 1 -2.2
2017-Jan-18 19:49 335 -2.2
2017-Jan-18 19:39 335 -2.2
2017-Jan-18 19:29 335 -2.2
2017-Jan-18 19:19 335 -1.7
2017-Jan-18 19:09 335 0 gusting 3 -1.7
2017-Jan-18 18:59 335 0 gusting 4 -1.7
2017-Jan-18 18:49 360 3 gusting 5 -1.7
2017-Jan-18 18:39 005 1 gusting 3 -1.1
2017-Jan-18 18:29 005 0 gusting 6 -1.1
2017-Jan-18 18:19 005 3 gusting 7 -1.1
2017-Jan-18 18:09 340 0 gusting 7 -1.1
2017-Jan-18 18:00 360 1 gusting 5 -1.1
2017-Jan-18 17:49 360 1 gusting 6 -0.6
2017-Jan-18 17:39 009 3 gusting 5 -0.6
2017-Jan-18 17:29 005 2 gusting 6 -0.0
2017-Jan-18 17:19 348 1 gusting 3 -0.0
2017-Jan-18 17:09 350 2 gusting 6 0.6
2017-Jan-18 16:59 022 1 gusting 3 1.1
2017-Jan-18 16:49 022 0 gusting 4 1.1
2017-Jan-18 16:39 038 1 gusting 4 1.7
2017-Jan-18 16:29 105 1.7
2017-Jan-18 16:19 105 1.7
2017-Jan-18 16:09 169 2.2
2017-Jan-18 15:59 109 2.2
2017-Jan-18 15:49 109 2.2
2017-Jan-18 15:39 109 2.8
2017-Jan-18 15:29 085 2 gusting 6 2.8
2017-Jan-18 15:19 082 2.8
2017-Jan-18 15:09 096 2.8
2017-Jan-18 14:59 096 2.8
2017-Jan-18 14:49 093 0 gusting 4 2.8
2017-Jan-18 14:39 094 2.8
2017-Jan-18 14:29 121 2.8
2017-Jan-18 14:19 086 0 gusting 4 2.8
2017-Jan-18 14:09 183 0 gusting 4 2.8
2017-Jan-18 13:59 188 3.3
2017-Jan-18 13:49 173 0 gusting 6 2.8
2017-Jan-18 13:39 185 0 gusting 4 2.8
2017-Jan-18 13:29 181 2.8
2017-Jan-18 13:19 168 0 gusting 4 2.8
2017-Jan-18 13:09 178 0 gusting 5 2.8
2017-Jan-18 12:59 173 1 gusting 6 2.8
2017-Jan-18 12:49 188 2.8
2017-Jan-18 12:39 190 2.8
2017-Jan-18 12:29 173 1 gusting 5 2.8
2017-Jan-18 12:19 144 0 gusting 2 2.2
2017-Jan-18 12:09 067 2.2
2017-Jan-18 11:59 015 2.2
2017-Jan-18 11:49 019 1 gusting 5 1.7
2017-Jan-18 11:39 032 1 gusting 4 1.7
2017-Jan-18 11:29 036 0 gusting 4 1.7
2017-Jan-18 11:19 339 0 gusting 3 1.1
2017-Jan-18 11:09 024 0 gusting 5 0.6
2017-Jan-18 10:59 343 0 gusting 5 0.6
2017-Jan-18 10:49 360 0 gusting 4 -0.0
2017-Jan-18 10:39 046 0 gusting 4 -0.0
2017-Jan-18 10:29 030 1 gusting 4 -0.6
2017-Jan-18 10:19 045 0 gusting 3 -1.1
2017-Jan-18 10:09 048 0 gusting 4 -1.7
2017-Jan-18 09:59 014 0 gusting 4 -1.7
2017-Jan-18 09:49 074 1 gusting 3 -2.2
2017-Jan-18 09:39 081 0 gusting 4 -2.2
2017-Jan-18 09:29 076 0 gusting 3 -2.8
2017-Jan-18 09:19 072 -3.3
2017-Jan-18 09:09 075 -3.3
2017-Jan-18 08:59 076 -3.9
2017-Jan-18 08:49 015 -4.4
2017-Jan-18 08:39 005 -4.4
2017-Jan-18 08:29 005 -4.4
2017-Jan-18 08:19 005 -5.0
2017-Jan-18 08:09 005 0 gusting 2 -5.0
2017-Jan-18 07:59 005 2 gusting 4 -5.6
2017-Jan-18 07:49 005 -5.6
2017-Jan-18 07:39 005 0 gusting 3 -5.0
2017-Jan-18 07:29 355 -5.0
2017-Jan-18 07:19 010 1 gusting 7 -5.0
2017-Jan-18 07:09 331 3 gusting 6 -5.0
2017-Jan-18 06:59 355 3 gusting 6 -5.0
2017-Jan-18 06:49 355 5 gusting 8 -5.0
2017-Jan-18 06:39 350 5 gusting 10 -5.0
2017-Jan-18 06:29 360 6 gusting 9 -5.0
2017-Jan-18 06:19 005 5 gusting 10 -5.0
2017-Jan-18 06:09 349 5 gusting 8 -5.0
2017-Jan-18 05:59 345 3 gusting 9 -5.0
2017-Jan-18 05:49 325 5 gusting 10 -5.0
2017-Jan-18 05:39 319 8 gusting 13 -5.0
2017-Jan-18 05:29 323 6 gusting 13 -5.0
2017-Jan-18 05:19 329 9 gusting 13 -5.0
2017-Jan-18 05:09 339 7 gusting 13 -5.0
2017-Jan-18 04:59 318 7 gusting 13 -5.0
2017-Jan-18 04:49 005 6 gusting 14 -5.0
2017-Jan-18 04:39 346 6 gusting 13 -5.0
2017-Jan-18 04:29 335 6 gusting 16 -5.0
2017-Jan-18 04:19 332 10 gusting 19 -5.0
2017-Jan-18 04:09 329 10 gusting 17 -5.0
2017-Jan-18 03:59 330 10 gusting 17 -5.0
2017-Jan-18 03:49 355 9 gusting 13 -5.0
2017-Jan-18 03:39 309 9 gusting 19 -5.0
2017-Jan-18 03:29 360 7 gusting 16 -5.0
2017-Jan-18 03:19 360 7 gusting 18 -5.0
2017-Jan-18 03:09 350 8 gusting 16 -5.0
2017-Jan-18 02:59 336 8 gusting 16 -5.0
2017-Jan-18 02:49 323 11 gusting 19 -5.0
2017-Jan-18 02:39 322 8 gusting 16 -5.0
2017-Jan-18 02:29 351 10 gusting 24 -5.0
2017-Jan-18 02:19 341 14 gusting 23 -5.0
2017-Jan-18 02:09 018 11 gusting 18 -5.0
2017-Jan-18 01:59 015 10 gusting 19 -5.0
2017-Jan-18 01:49 005 8 gusting 13 -5.0
2017-Jan-18 01:39 005 5 gusting 11 -5.0
2017-Jan-18 01:29 321 6 gusting 15 -5.0
2017-Jan-18 01:19 325 7 gusting 15 -5.0
2017-Jan-18 01:09 318 7 gusting 16 -4.4
2017-Jan-18 00:59 360 8 gusting 15 -4.4
2017-Jan-18 00:49 345 7 gusting 18 -4.4
2017-Jan-18 00:39 338 12 gusting 23 -4.4
2017-Jan-18 00:29 336 8 gusting 21 -4.4
2017-Jan-18 00:19 346 9 gusting 18 -4.4
2017-Jan-18 00:09 338 11 gusting 19 -4.4
2017-Jan-17 23:59 327 10 gusting 19 -4.4
2017-Jan-17 23:49 333 10 gusting 20 -4.4
2017-Jan-17 23:39 316 11 gusting 19 -4.4
2017-Jan-17 23:29 314 11 gusting 18 -4.4
2017-Jan-17 23:19 344 8 gusting 15 -4.4
2017-Jan-17 23:09 345 9 gusting 19 -4.4